This demonstration page uses our WeatherBlox Daily Observations layout. Learn more.

Left ArrowRight Arrow

Hourly Observations for June 24, 2021

Temp ( °F °C ) Dew Point ( °F °C ) Humidity (%) Winds ( mph kmh ) Pressure ( in mb ) Visibility ( mi km ) Precip ( " mm )
12:53 am 00:53 Clear 82 27.8 63 17.2 53 53 SE 13 20 29.80 1009 10 16 0.00 0.00
1:53 am 01:53 Clear 80 26.7 63 17.2 56 56 SE 13 20 29.79 1009 10 16 0.00 0.00
2:53 am 02:53 Clear 79 26.1 63 17.2 58 58 SE 10 17 29.78 1009 10 16 0.00 0.00
3:53 am 03:53 Clear 78 25.6 64 17.8 62 62 SSE 12 19 29.76 1008 10 16 0.00 0.00
4:53 am 04:53 Clear 77 25 65 18.3 66 66 SE 13 20 29.75 1008 10 16 0.00 0.00
5:53 am 05:53 Clear 76 24.4 66 18.9 72 72 SE 13 20 29.76 1008 10 16 0.00 0.00
6:53 am 06:53 Sunny 75 23.9 66 18.9 74 74 SE 14 22 29.77 1008 10 16 0.00 0.00
7:53 am 07:53 Sunny 76 24.4 67 19.4 74 74 SE 17 28 29.78 1009 9 14 0.00 0.00
8:53 am 08:53 Sunny 79 26.1 67 19.4 67 67 SSE 21 33 29.79 1009 9 14 0.00 0.00
9:53 am 09:53 Sunny 82 27.8 67 19.4 60 60 SE 17 28 29.79 1009 10 16 0.00 0.00
10:53 am 10:53 Sunny 87 30.6 66 18.9 50 50 SSE 17 28 29.79 1009 10 16 0.00 0.00
11:53 am 11:53 Sunny 91 32.8 64 17.8 41 41 SE 12 19 29.78 1008 10 16 0.00 0.00
12:53 pm 12:53 Sunny 94 34.4 63 17.2 36 36 SSE 8 13 29.77 1008 10 16 0.00 0.00
1:53 pm 13:53 Sunny 97 36.1 63 17.2 33 33 VRB 6 9 29.74 1007 10 16 0.00 0.00
2:53 pm 14:53 Sunny 99 37.2 62 16.7 30 30 SSE 13 20 29.72 1006 10 16 0.00 0.00
3:53 pm 15:53 Sunny 101 38.3 60 15.6 26 26 ESE 12 19 29.70 1006 10 16 0.00 0.00
4:53 pm 16:53 Sunny 101 38.3 58 14.4 24 24 SE 8 13 29.67 1005 10 16 0.00 0.00
5:53 pm 17:53 Sunny 102 38.9 58 14.4 23 23 ESE 14 22 29.64 1004 10 16 0.00 0.00
6:53 pm 18:53 Sunny 100 37.8 60 15.6 27 27 ESE 18 30 29.65 1004 10 16 0.00 0.00
7:53 pm 19:53 Sunny 97 36.1 60 15.6 29 29 SE 21 33 29.66 1004 10 16 0.00 0.00
8:28 pm 20:28 Sunny with Nearby Thunderstorms 94 34.4 61 16.1 33 33 SE 23 37 29.58 1002 10 16 0.00 0.00
8:43 pm 20:43 Sunny 94 34.4 61 16.1 33 33 SE 16 26 29.62 1003 10 16 0.00 0.00
8:53 pm 20:53 Sunny 93 33.9 61 16.1 34 34 SE 22 35 29.71 1006 10 16 0.00 0.00
9:53 pm 21:53 Clear 91 32.8 62 16.7 38 38 SSE 21 33 29.72 1006 10 16 0.00 0.00
10:53 pm 22:53 Clear 88 31.1 64 17.8 45 45 SE 29 46 29.70 1006 10 16 0.00 0.00
11:53 pm 23:53 Clear 86 30 65 18.3 49 49 SE 29 46 29.72 1006 10 16 0.00 0.00

Powered by AerisWeather